Погода в Белогорске

Погода в Белогорске : погода сейчас, прогноз погоды и архив. Всё, что Вы хотите узнать о погоде в Белогорске!

Хотите узнать прогноз погоды в Белогорске? Тогда Вам сюда: Погода в Белогорске

Поиск расширенной информации на нашем сайте:

Другие новости

Новости СМИ2

Главная страница сайта

Новости сайта

03.07.2017

Напоминаем, что на нашем специализированном сайте Метеоцентр.Азия вы можете получить высокодетализированные автоматические прогнозы погоды по пунктам России, СНГ и мира в авиационном формате (включающие направление и скорость ветра, видимость, явления погоды, количество и форму облачности, нижнюю и верхнюю границу облачности).


Погода в Белогорске - сегодня

Время (UTC), дата Ветер
(°,м/с) 
Видим.   Явления Облачность Т
(°С)
Тd
(°С)
f(%) Тe
(°С)
Pmin
(гПа)
dP
(гПа)
Po
(мм)
O2
(г/м3)
Тmin Tmax R s Состояние
почвы
09 09.12.17 360 (С) 20000 м    10/0 верхняя 
[Cs]
-25.4 -28.4 76 -26  1020.3  1.5  747  334           
12 09.12.17 350 (С) 20000 м  {снег}  3/0 верхняя 
[Ci fib]
-27.6 -30.8 74 -28  1021.5  0.9  747  337    -21.4  0.2     
15 09.12.17 010 (С) 20000 м    ясно 
-28.1 -31.2 75 -32  1021.9  0.4  748  338           
18 09.12.17 310 (СЗ) 20000 м    ясно 
-29.8 -33.2 72 -31  1022.6  0.5  748  340           
21 09.12.17 350 (С) 20000 м    ясно 
-30.5 -33.9 72 -34  1022.4  -0.3  748  341           
00 10.12.17 350 (С) 20000 м    8/0 верхняя 
[Ci fib]
-29.5 -32.9 72 -35  1022.5  0.2  748  340  -31.1      равномерный
сухой снег
100% 
03 10.12.17 350 (С) 20000 м    6/0 верхняя 
[Ci fib]
-25.1 -28.6 73 -30  1021.6  -0.4  748  334           
06 10.12.17 010 (С) 20000 м    4/0 верхняя 
[Ci fib]
-22.9 -27.9 64 -28  1021.1  -0.3  747  331           
09 10.12.17 тихо ()   20000 м    ясно 
-24.6 -27.6 76 -25  1022.2  0.9  748  333           
12 10.12.17 320 (СЗ) 20000 м    ясно 
-25.4 -28.3 77 -26  1022.5  0.3  748  334    -22.9       
15 10.12.17 340 (С) 20000 м    4/0 верхняя 
[Ci fib]
-24.6 -27.4 78 -28  1022.2  -0.3  748  333           
18 10.12.17 320 (СЗ) 20000 м    4/0 верхняя 
[Ci fib]
-24.2 -27.1 77 -25  1022.1  748  333           
21 10.12.17 330 (СЗ) 20000 м    6/0 верхняя 
[Ci fib]
-23.1 -25.8 78 -26  1021.9  -0.1  748  331           
00 11.12.17 340 (С) 20000 м    8/0 средняя, верхняя 
[Ac trans|Ci fib]
-19.7 -23.3 73 -24  1021.8  0.2  748  327  -26.1      равномерный
сухой снег
100% 
03 11.12.17 350 (С) 6-10{10}  20000 м    6/0 верхняя 
[Ci fib]
-17.6 -23.7 59 -24  1020.8  -0.7  748  324           
06 11.12.17 340 (С) 3{10}  20000 м    6/0 верхняя 
[Ci fib]
-16.1 -22.9 56 -20  1019.3  -0.9  747  321           
09 11.12.17 320 (СЗ) 20000 м    4/0 верхняя 
[Ci fib]
-18.1 -23.9 60 -21  1020.7  0.6  747  324           
12 11.12.17 340 (С) 20000 м    8/0 верхняя 
[Ci fib]
-20 -25.4 62 -24  1020.6  -0.2  747  327    -15.8       
15 11.12.17 350 (С) 20000 м    10/0 средняя, верхняя 
[Ac trans|Ci fib]
-20.1 -25.8 60 -24  1020.4  -0.2  747  327           
18 11.12.17 340 (С) 20000 м    10/0 средняя 
[As op]
-20.7 -26.3 61 -25  1020.4  -0.1  747  327           
21 11.12.17 340 (С) 4{10}  20000 м    10/0 средняя 
[As op]
-20.5 -26.8 57 -26  1020.1  -0.2  747  327           
00 12.12.17 340 (С) 20000 м    10/0 средняя 
[As trans]
-20.7 -26.5 60 -25  1021  0.8  748  328  -20.8      равномерный
сухой снег
100% 
03 12.12.17 340 (С) 20000 м    10/0 средняя 
[As trans]
-18.6 -26 52 -24  1020.4  -0.4  747  325           
06 12.12.17 340 (С) 20000 м    10/0 средняя 
[As trans]
-17.1 -24.7 52 -20  1021.2  748  323           
09 12.12.17 320 (СЗ) 20000 м    10/0 средняя 
[As trans]
-19 -25 59 -22  1023.4  749  326           
Время (UTC), дата Ветер
(°,м/с) 
Видим.   Явления Облачность Т
(°С)
Тd
(°С)
f(%) Тe
(°С)
Pmin
(гПа)
dP
(гПа)
Po
(мм)
O2
(г/м3)
Тmin Tmax R s Состояние
почвы

Для получения пояснительной информации подведите курсор к названию столбца.

ПОГОДА в Белогорске - архив

Всё, что Вы хотите узнать о погоде в Белогорске - удобно и подробно!

Выберите нужную дату (начиная с 1 января 2015* года) и нажмите кнопку "Найти".
Будут отображены архивные сводки погоды по пункту Белогорск, начиная с указанной даты.


Отображать данные в формате CSV (для использования в таблицах Excel)


Внимание! Наш архив погоды предназначен исключительно для личного некоммерческого использования в познавательных целях. Если Вам необходимы официальные справки о состоянии погоды (для производственных, юридических, коммерческих и т.п. целей), обращайтесь в органы Росгидромета.

*Примечание: данная дата относится к архиву по метеостанциям СССР (Россия, СНГ, Балтия).
Архив по метеостанциям Зарубежной Европы и Азии (кроме Китая) хранится 10 дней, по другим регионам земного шара (Китай, Африка, Америка, Австралия, Океания) - 1 день.

Белогорск - район местоположения метеостанции


Название, широта, долгота, высота метеостанции:
Белогорск 50.9°ш. 128.5°д. 178 м над ур. моря [Российская Федерация]

Дополнительная информация

В oтличие oт бoльшинства пoгoдных сайтoв мы публикуем пoдрoбную метеoинфoрмацию в детальнoм прoфессиoнальнoм фoрмате.

Характеристики температуры и влажнoсти вoздуха измеряются на высoте 2 м в тени вдали oт зданий и деревьев.
Скoрoсть ветра измеряется на высoте 10 м (на урoвне рoста челoвека скoрoсть ветра ниже в 1.5-2 раза). Если метеoстанция нахoдится в гoрoде или в лесу, тo скoрoсть ветра занижена на 2-4 м/с пo сравнению с oткрытым местoм. Скoрoсть ветра над акватoриями крупных рек и oзёр, а также на вершинах хoлмoв на 2-5 м/с выше, чем в oбычных услoвиях.
Атмoсфернoе давление в разных тoчках местнoсти мoжет значительнo oтличаться oт давления на метеoстанции, в зависимoсти oт услoвий рельефа (при пoдъёме на 10 м давление пoнижается примернo на 1 мм рт.ст.).